Location: Liberec
(50.7830°N, 15.0500°E)
Time: 07:06:43
(UTC+02:00)

Tiangong - Visible Passes

Search period start: 20 May 2026 00:00
Search period end: 30 May 2026 00:00
Orbit: 381 x 391 km, 41.5° (Epoch: 19 May)

Date Brightness Start Highest point End Pass type
(mag) Time Alt. Az. Time Alt. Az. Time Alt. Az.
20 May 0.2 22:24:36 10° SSW 22:25:00 11° S 22:25:00 11° S visible
21 May 0.4 23:01:07 10° SW 23:01:17 11° SW 23:01:17 11° SW visible
22 May -0.2 22:02:05 10° SSW 22:04:01 15° S 22:04:59 13° SSE visible
23 May -0.2 22:38:59 10° SW 22:40:43 15° S 22:40:43 15° S visible
24 May -0.2 21:39:45 10° SW 21:41:47 16° S 21:43:50 10° SE visible
25 May 0.0 22:16:58 10° SW 22:18:41 14° S 22:19:31 13° S visible
27 May 0.3 21:55:14 10° SW 21:56:17 11° SSW 21:57:20 10° S visible
